RH
9 65 46 48 52 57 66 84 80 80 57 60 64 60 52 50 61 86 95 62 22 14 16 14 14 14 14 14 12 11 10 14 26 40 46 38 35 30 28 32 37 32 12 12 12 16 23 26 25
45 51 47 53 66 46 60 98 89 58 65 66 61 60 67 59 62 87 72 44 14 14 15 15 14 14 14 14 13 12 10 9 10 13 14 22 38 30 36 36 37 42 32 12 14 19 25 25 24
52 46 48 44 56 61 54 82 60 62 66 71 51 64 52 57 58 65 40 13 15 16 15 15 15 15 14 14 14 14 12 10 9 9 11 14 12 14 27 38 47 34 20 15 16 22 26 27 25
42 44 32 38 59 65 93 100 92 76 65 64 63 54 62 75 61 30 15 16 15 15 16 17 17 17 16 16 15 15 15 13 11 9 9 10 12 12 13 14 15 19 23 21 21 24 26 27 27
35 39 41 56 83 100 97 99 87 71 67 68 66 56 60 64 31 16 15 17 19 21 25 26 31 32 31 29 25 20 17 16 16 12 10 10 10 11 12 14 15 18 22 25 27 27 27 26 27
26 33 51 82 100 99 97 100 84 77 73 78 67 62 56 43 18 18 19 26 28 30 32 35 38 46 48 54 53 48 34 23 18 16 15 12 11 10 11 12 15 18 22 24 26 28 28 28 29
52 24 69 66 97 97 95 82 65 72 76 73 68 57 46 27 27 37 30 31 28 30 36 44 45 55 56 59 57 52 63 46 44 37 25 18 16 14 12 12 14 18 20 22 24 26 29 31 31
57 39 72 96 94 98 98 77 74 86 82 68 62 57 45 29 30 32 30 34 35 44 54 58 57 59 58 62 60 58 59 56 59 59 59 56 43 27 28 15 14 18 22 23 22 22 24 27 29
56 51 72 92 92 75 77 69 75 78 69 74 64 61 48 37 39 54 39 42 54 55 62 62 56 58 63 63 61 63 62 66 68 68 67 68 65 62 55 48 19 15 18 23 26 25 23 24 29
50 41 55 59 69 62 71 70 70 72 61 60 54 52 47 48 50 52 43 60 67 56 51 49 41 35 34 27 24 23 17 23 29 30 42 52 66 64 57 61 65 40 29 31 25 25 28 28 27
52 47 58 62 53 58 64 70 70 67 64 69 71 65 68 68 61 53 55 59 58 38 15 5 2 2 2 2 2 2 2 2 3 4 5 12 23 37 41 29 59 76 72 43 29 45 69 54 37
50 60 57 55 54 49 56 54 56 66 64 61 56 57 60 62 70 62 52 34 10 2 2 3 4 4 4 4 5 5 5 4 4 4 3 3 3 5 10 16 34 33 40 44 74 88 66 36 56
55 57 54 54 56 49 48 56 55 68 68 65 68 65 66 70 52 34 13 2 2 4 5 6 7 7 7 7 7 7 6 6 6 5 5 4 4 3 3 3 3 5 6 11 33 36 68 83 89
76 75 74 79 60 59 62 60 67 63 61 64 65 63 53 40 24 7 2 4 6 8 8 9 9 8 8 7 7 6 6 6 5 5 4 4 4 4 3 3 3 3 2 2 4 7 18 28 46
66 57 62 63 61 58 45 39 49 53 56 50 50 44 32 18 3 2 4 8 8 9 10 9 8 8 7 7 6 6 6 5 5 4 4 4 3 3 3 2 2 2 2 2 2 2 2 2 6
49 55 52 54 51 37 34 32 36 46 45 38 32 25 9 2 3 6 8 9 10 10 9 8 7 6 6 6 6 6 6 5 5 4 4 4 3 3 3 3 2 2 2 1 1 1 2 2 2
32 33 33 43 31 28 34 36 27 17 17 21 15 6 3 3 6 8 9 11 12 11 10 9 8 7 6 7 7 7 6 6 6 5 5 4 4 4 4 4 4 3 3 2 2 1 1 1 1
26 33 30 24 27 27 23 32 31 12 8 9 4 4 4 6 9 11 11 13 14 14 14 12 10 9 8 7 7 7 7 7 7 7 6 6 6 6 6 6 5 5 5 4 4 4 3 2 2
19 27 22 22 18 17 22 22 26 21 6 8 6 6 8 8 13 13 14 15 16 16 16 16 14 12 11 10 9 8 8 8 8 8 8 8 8 7 7 7 6 6 6 5 5 5 4 4 3
21 21 20 19 11 20 23 21 23 22 5 9 14 18 18 14 14 16 15 15 17 19 18 17 17 16 14 14 12 12 10 9 9 8 8 9 9 9 9 9 8 8 7 7 7 6 5 4 3
17 18 18 15 11 22 23 23 22 19 12 16 28 30 30 21 16 12 14 16 17 23 23 21 20 20 18 17 16 15 15 14 13 13 11 10 10 11 11 11 10 10 9 9 8 8 6 6 5
15 17 16 16 16 17 20 21 21 21 20 20 31 35 31 21 14 11 13 19 20 27 28 26 23 22 20 19 19 19 19 18 18 17 17 16 16 14 13 15 15 13 12 11 10 9 8 8 7
16 16 16 18 14 16 19 18 13 20 24 22 23 30 28 26 20 19 15 17 18 27 32 30 25 22 21 21 21 21 21 22 22 22 22 21 25 27 23 21 20 20 20 19 16 14 12 11 10
18 18 13 17 18 21 15 19 17 18 14 19 20 22 26 28 28 25 24 16 17 24 31 35 30 26 24 21 19 21 22 23 24 26 27 30 31 33 40 38 33 30 26 23 21 18 17 16 14
15 22 31 36 42 32 17 18 16 16 20 21 19 19 20 21 21 23 22 22 25 28 34 42 33 28 26 24 25 29 29 29 28 30 32 34 35 38 39 40 41 39 34 29 26 23 20 19 19
12 25 50 54 69 39 21 17 16 17 23 23 23 21 25 28 28 26 26 34 33 26 28 38 41 35 32 29 32 34 35 36 33 34 35 36 36 38 40 44 44 38 34 30 26 24 22 20 19
17 27 30 36 36 36 23 19 20 20 20 20 18 21 26 29 30 31 34 42 40 44 48 45 41 37 35 31 32 34 36 39 40 40 40 40 40 41 44 42 35 30 27 25 24 23 22 21 20
22 22 31 33 32 53 23 14 20 21 17 16 10 11 22 32 35 37 40 44 45 56 62 52 44 31 34 34 35 36 38 40 40 43 44 44 45 46 41 33 29 25 23 21 20 18 16 15 14
20 30 31 30 18 59 71 22 24 23 22 18 13 12 26 34 38 42 45 50 55 56 60 56 44 35 40 35 38 38 39 40 42 45 45 50 48 40 32 28 24 21 16 11 9 8 8 7 7
10 18 30 30 26 31 42 20 19 24 24 24 24 20 21 34 43 48 53 57 54 55 52 46 31 33 40 37 40 40 39 41 44 46 50 46 40 31 25 21 16 12 8 7 7 6 6 6 6
Wind_Speed
16 15 15 9 10 15 10 2 12 2 19 19 23 18 17 18 19 24 10 6 10 14 14 13 14 15 17 17 18 18 16 13 11 10 11 11 10 11 10 10 10 10 8 7 9 10 10 9 9
20 14 10 18 25 17 9 10 15 15 19 16 19 13 15 22 28 19 11 8 10 13 12 12 13 14 15 16 16 16 15 14 12 11 10 9 9 8 8 8 9 9 9 6 6 7 8 7 7
11 10 8 15 17 19 10 7 9 11 12 8 12 15 24 24 22 18 10 11 12 11 10 12 13 13 14 14 15 15 14 12 11 10 9 8 7 7 6 5 6 6 8 6 5 6 6 6 6
14 9 16 19 17 6 6 5 12 13 13 13 15 20 24 23 17 12 12 11 11 9 10 11 11 12 12 12 12 13 12 12 11 9 8 7 6 5 5 5 6 6 6 6 5 4 4 5 5
10 7 3 25 22 14 14 11 13 14 19 22 19 20 18 18 14 12 12 10 10 8 9 8 9 10 10 11 12 12 11 10 9 8 7 6 5 4 3 3 3 4 4 4 4 3 3 4 4
9 11 21 26 22 16 14 9 9 9 17 19 16 18 19 16 13 10 10 9 6 6 7 6 7 9 10 10 11 10 10 10 9 8 8 8 7 4 2 1 1 1 2 2 3 3 3 4 4
5 11 28 33 23 17 17 13 11 13 16 18 19 17 18 15 13 10 6 6 5 6 6 6 6 8 8 8 10 9 8 8 8 8 8 8 7 7 8 5 2 2 4 4 3 2 3 4 4
10 14 25 28 28 22 15 16 14 13 21 18 17 13 14 14 10 7 3 3 5 6 7 7 7 7 9 10 11 10 9 9 10 10 9 9 8 7 7 4 5 6 6 7 8 8 6 5 4
11 15 22 27 24 17 18 17 20 19 21 12 13 14 12 11 8 4 2 4 4 6 10 10 10 10 11 12 14 13 12 11 11 12 13 14 13 11 8 5 6 7 8 9 10 11 12 10 9
16 16 15 12 13 22 22 18 21 21 16 11 11 10 7 6 5 4 2 4 6 9 8 10 12 12 13 14 14 14 15 14 15 15 15 14 15 16 17 12 11 9 9 11 12 12 15 16 15
24 17 15 16 19 20 27 24 21 15 13 13 10 7 7 6 2 3 6 7 8 11 11 10 10 12 10 12 12 12 12 12 12 14 14 15 16 18 19 20 14 15 14 14 15 14 14 13 14
11 14 13 23 21 21 25 22 18 13 11 13 8 7 5 3 1 4 4 6 9 8 8 9 10 11 12 12 13 14 14 14 14 14 14 14 15 17 18 19 19 21 23 22 20 19 19 19 18
9 17 20 20 19 16 15 13 9 11 12 9 6 5 4 2 2 5 7 7 8 10 11 11 11 12 13 13 13 13 13 12 13 13 14 15 15 15 15 17 18 21 22 23 24 24 24 22 23
24 25 23 18 15 11 8 10 8 10 8 5 4 2 2 2 6 8 7 9 11 12 13 14 14 14 14 14 14 14 14 13 13 13 12 13 14 14 15 16 17 18 18 19 22 24 25 26 27
20 23 19 15 13 12 5 7 7 6 6 3 3 2 4 5 5 6 9 10 11 13 13 13 13 14 14 15 15 15 15 14 14 13 13 14 14 14 14 14 15 16 18 18 19 21 22 22 25
16 15 12 6 6 6 4 3 4 4 4 4 4 5 3 1 2 6 8 9 11 12 12 12 12 14 14 14 14 14 13 13 13 13 13 14 14 14 14 14 14 15 16 18 18 18 20 22 22
10 7 4 10 4 4 4 1 4 4 5 5 5 5 2 2 4 7 7 8 10 11 12 13 14 14 14 14 13 13 13 13 14 13 14 14 14 14 13 14 14 15 16 16 16 17 17 16 17
9 14 8 2 7 5 4 9 9 6 8 7 7 5 4 4 4 5 5 6 9 11 13 14 14 13 13 15 16 15 15 13 13 14 14 15 14 14 14 14 15 15 16 16 16 17 18 16 14
15 13 9 3 3 2 3 15 15 13 13 10 8 7 7 7 6 5 6 6 10 12 14 15 17 16 15 14 14 16 15 14 13 12 13 14 15 15 16 16 16 16 16 16 16 17 17 17 15
8 15 13 4 5 4 9 15 19 18 14 10 9 9 10 10 7 7 9 12 12 15 15 16 15 16 16 17 17 17 17 16 15 15 14 15 15 16 17 17 17 17 18 18 18 17 18 20 19
6 14 11 4 4 12 10 15 23 17 14 12 11 11 14 15 14 13 10 11 12 13 14 14 14 15 15 15 16 17 19 20 20 19 18 16 15 15 17 18 18 19 19 19 20 20 20 19 20
11 6 6 7 8 6 15 7 27 29 18 15 16 15 17 17 17 17 15 12 14 12 13 14 16 14 16 16 16 17 19 20 21 22 24 23 22 20 18 18 21 23 23 23 23 22 22 22 21
10 10 9 6 8 12 14 10 11 25 27 20 19 20 21 21 20 20 18 17 16 12 14 16 17 16 15 16 17 17 18 19 21 22 21 23 25 27 28 27 24 23 25 27 27 27 26 26 24
8 10 10 10 9 9 20 21 8 21 15 19 16 19 20 21 22 22 22 19 18 17 16 15 17 18 18 19 20 23 24 25 25 24 24 24 25 27 30 33 35 33 31 29 28 29 29 30 30
11 6 3 2 2 8 7 12 22 15 17 13 12 12 15 18 20 22 24 22 22 22 16 16 18 19 20 23 23 24 26 27 28 29 29 29 29 30 31 34 36 37 39 38 37 35 32 31 31
14 9 2 3 1 5 8 6 7 7 15 16 17 16 17 20 23 24 24 25 26 23 18 19 19 17 18 21 22 24 26 27 28 28 30 31 33 34 37 39 39 39 38 38 38 38 37 35 33
12 11 11 7 11 5 8 9 12 15 17 19 20 17 22 24 25 26 24 25 26 24 23 24 23 19 21 23 24 26 28 29 30 30 32 33 35 36 38 40 41 41 40 39 39 38 37 37 37
13 15 9 8 0 3 8 10 9 16 19 16 18 20 20 22 24 26 26 25 24 25 27 29 28 24 24 24 27 29 31 33 34 34 35 37 39 40 42 42 41 39 38 38 38 40 40 41 40
20 18 12 8 7 5 2 2 2 4 8 12 11 16 19 22 24 26 27 25 24 28 31 31 31 29 28 28 31 32 34 36 37 37 39 42 44 46 45 43 41 40 39 38 38 40 41 42 43
22 25 21 13 6 10 4 10 7 7 10 12 15 16 16 19 22 25 27 28 29 32 34 34 31 30 29 32 35 36 38 39 39 41 43 46 47 46 44 43 42 42 41 41 42 43 43 44 45
Wind_Direction
126 109 145 123 61 80 68 96 263 127 111 119 127 131 122 125 112 107 125 89 60 64 60 56 53 51 51 49 51 52 51 55 58 62 60 57 49 52 55 51 49 47 56 66 78 86 89 86 80
131 123 118 70 81 86 33 127 149 116 101 118 137 116 122 116 119 114 110 78 81 69 64 63 59 58 55 55 55 56 57 54 54 52 55 58 56 53 50 43 39 37 36 62 75 83 81 78 74
133 119 97 45 83 104 194 160 128 100 98 124 138 144 131 116 114 113 106 100 84 73 70 61 59 54 53 53 53 53 55 56 59 61 58 55 48 46 45 46 40 38 46 63 64 69 72 68 61
120 123 60 57 133 154 150 156 145 142 121 129 128 138 121 118 108 106 98 85 82 77 71 66 59 55 50 48 50 50 49 48 47 49 57 61 62 53 40 27 25 43 51 62 66 54 52 57 55
105 115 88 117 129 162 180 169 173 162 143 135 140 124 124 118 114 114 107 95 83 71 66 63 57 49 44 39 37 37 36 39 39 37 40 45 40 34 45 38 32 32 33 42 41 44 38 23 29
42 158 144 144 153 161 171 163 131 133 139 128 131 128 127 124 118 114 111 104 99 82 63 50 40 35 26 24 22 23 20 18 19 19 16 6 4 3 0 334 332 356 16 14 10 3 3 6 356
42 154 150 158 162 160 174 161 133 139 136 127 119 129 125 129 126 115 131 110 75 49 37 22 14 19 13 3 2 352 6 3 359 360 357 357 355 340 326 319 306 291 284 274 249 257 304 324 329
220 148 157 163 165 166 164 146 121 142 133 126 122 118 133 139 125 110 103 75 55 32 28 9 2 345 339 336 331 332 339 333 332 331 333 329 330 334 331 309 311 285 279 286 287 279 267 269 265
200 134 158 173 181 152 131 151 117 123 148 114 124 122 132 128 119 125 155 102 66 8 358 346 336 333 326 324 323 323 320 319 311 310 311 310 307 300 296 289 271 264 271 275 277 281 282 268 260
168 154 145 159 175 138 126 140 147 141 136 117 105 118 120 130 147 173 174 69 358 341 347 332 324 321 319 315 310 309 309 312 306 299 298 302 303 302 296 285 287 289 274 261 260 267 272 271 271
151 153 152 136 147 128 126 135 134 132 128 132 124 124 135 144 119 14 10 356 336 329 337 329 331 341 346 326 333 335 331 322 310 306 305 294 288 287 290 296 292 293 277 274 274 268 266 267 259
142 140 155 138 130 134 141 143 140 130 147 146 144 134 110 119 47 324 332 333 338 359 13 1 353 342 341 336 333 332 328 326 323 316 312 304 298 295 295 294 289 281 276 277 273 275 274 272 261
192 138 142 142 146 148 140 133 140 130 134 138 152 161 165 204 285 349 348 1 13 6 1 355 350 341 335 333 329 328 325 324 319 319 319 315 311 310 307 300 296 294 298 294 282 280 275 276 278
146 138 139 149 151 141 166 137 142 133 131 145 159 173 235 293 337 344 18 17 6 2 360 357 351 343 342 341 334 334 333 335 332 330 326 320 317 318 313 312 310 305 302 292 288 284 279 277 271
147 142 140 141 140 134 135 121 117 113 128 192 226 270 313 337 350 3 7 8 4 358 353 353 345 343 340 337 335 333 334 334 333 333 330 329 327 323 317 314 315 313 308 303 297 292 287 279 273
124 117 117 131 152 103 46 101 124 153 192 230 264 274 273 335 358 4 5 359 358 353 353 348 346 343 340 339 335 336 336 334 330 328 326 323 321 320 323 324 329 330 325 317 309 300 296 297 293
121 150 216 160 96 359 317 230 300 269 254 249 255 250 263 333 351 339 343 353 356 357 358 356 355 350 343 336 331 330 329 331 329 326 323 321 321 321 325 328 334 336 326 323 320 316 311 308 307
149 192 195 196 194 236 318 297 302 276 259 253 242 240 254 277 294 296 339 356 353 0 0 357 354 352 346 340 335 334 328 328 327 324 321 319 321 323 330 337 337 332 331 329 328 326 322 321 323
274 194 151 200 267 137 243 267 282 293 245 240 241 248 262 271 252 275 300 348 348 351 353 355 347 346 349 345 338 334 331 328 324 320 317 317 318 322 328 332 331 327 323 322 325 325 322 320 321
121 139 151 213 225 185 245 262 270 282 254 245 247 258 271 281 301 302 316 332 342 337 338 341 342 339 340 336 334 335 333 333 331 327 325 324 326 326 327 326 323 321 320 320 320 319 317 316 314
168 184 190 234 233 190 197 252 260 269 246 234 245 265 277 296 310 316 313 310 317 319 323 330 338 335 336 333 333 335 335 334 336 335 333 332 329 329 328 324 323 321 319 319 320 319 315 312 313
176 158 189 221 223 198 206 248 246 254 249 229 230 242 264 280 292 301 304 300 298 304 312 325 328 330 330 332 335 335 336 336 337 337 335 336 335 330 328 330 328 325 323 319 316 314 312 311 309
171 192 197 236 249 288 225 243 287 236 238 236 223 234 248 262 276 284 296 300 302 300 307 314 317 321 321 323 328 335 337 336 334 333 331 332 336 334 332 330 327 325 322 321 316 313 309 305 304
224 210 202 211 242 268 254 225 267 224 259 241 235 237 245 254 265 276 284 296 304 301 299 302 308 316 318 321 329 336 337 337 334 332 332 331 328 329 329 325 324 323 320 315 311 309 308 305 302
235 163 213 266 235 236 345 205 234 264 236 238 256 265 269 270 270 273 278 287 294 293 295 292 303 308 316 322 335 334 333 333 330 328 326 324 324 323 319 320 320 319 318 316 315 310 305 300 298
209 189 229 220 266 312 205 245 232 211 205 225 235 262 262 260 271 278 281 281 284 287 293 300 298 295 300 315 323 323 325 326 323 318 317 317 316 317 317 317 315 314 312 308 306 304 303 300 296
191 214 234 257 285 267 241 252 217 226 222 224 243 226 239 250 264 273 278 278 282 286 293 293 290 288 298 310 315 316 319 319 316 313 313 312 312 311 311 310 310 309 307 305 304 302 300 299 296
212 212 215 206 176 261 277 268 264 241 243 241 233 234 236 247 254 262 269 273 279 275 278 285 289 297 304 306 311 314 315 314 313 312 311 311 311 311 310 309 307 305 303 302 301 300 298 297 296
217 212 215 206 225 207 261 249 240 249 258 253 231 234 233 244 254 259 266 269 264 266 273 280 290 301 304 306 308 311 312 312 312 312 312 313 313 312 310 309 307 306 305 302 298 295 295 293 293
228 229 227 224 214 224 250 260 265 220 229 250 255 263 253 243 250 252 257 259 261 265 271 279 295 301 299 301 307 309 310 310 310 310 311 312 311 310 309 307 307 305 303 300 298 294 292 290 288